Cape Girardeau, MO

3:51 PM CST on December 15, 2019 (GMT -0600)
Cape Girardeau Regional

Weather History for KCGI - October, 2019

Change the Weather History Date:

Wednesday, October 30, 2019

  Actual Average Record
Temperature  
Mean Temperature 46 °F 53 °F  
Max Temperature 50 °F 66 °F 82 °F (1971)
Min Temperature 41 °F 41 °F 24 °F (1980)
Degree Days  
Heating Degree Days 19 12  
Month to date heating degree days 231 244  
Since 1 July heating degree days 231 293  
Cooling Degree Days 0 0  
Month to date cooling degree days 51 29  
Year to date cooling degree days 1775 1451  
Moisture  
Dew Point 43 °F    
Average Humidity 90    
Maximum Humidity 93    
Minimum Humidity 86    
Precipitation  
Precipitation 0.48 in 0.13 in 1.65 in (2009)
Month to date precipitation 7.50 3.67  
Year to date precipitation 55.17 38.00  
Sea Level Pressure  
Sea Level Pressure 30.00 in    
Wind  
Wind Speed 10 mph (North)    
Max Wind Speed 17 mph    
Max Gust Speed 22 mph    
Visibility 7 miles    
Events Rain , Thunderstorm    
T = Trace of Precipitation, MM = Missing Value Source: NWS Daily Summary

Daily Weather History Graph

Daily Weather History Graph

Search for Another Location

Airport or City:

Astronomy

Oct. 30, 2019 Rise Set
Actual Time 7:20 AM CDT 6:02 PM CDT
Civil Twilight 6:53 AM CDT 6:29 PM CDT
Nautical Twilight 6:22 AM CDT 7:00 PM CDT
Astronomical Twilight 5:52 AM CDT 7:30 PM CDT
Moon 10:01 AM CDT (10/30) 8:13 PM CDT (10/30)
Length of Visible Light 11h 36m
Length of Day
10h 42m
Waxing Crescent, 9% of the Moon is Illuminated
Oct 30
Waxing Crescent
Nov 4
First Quarter
Nov 12
Full
Nov 19
Last Quarter
Nov 26
New

Hourly Weather History & Observations

Time (CDT) Temp. Windchill Dew Point Humidity Pressure Visibility Wind Dir Wind Speed Gust Speed Precip Events Conditions
12:53 AM 46.9 °F - 43.0 °F 86% 30.17 in 10.0 mi North 9.2 mph - 0.00 in Rain Light Rain
1:53 AM 46.0 °F 39.3 °F 42.1 °F 86% 30.12 in 9.0 mi NNE 16.1 mph - 0.00 in Rain Light Rain
2:53 AM 46.9 °F - 43.0 °F 86% 30.09 in 9.0 mi ENE 11.5 mph - 0.00 in Rain Light Rain
3:53 AM 46.9 °F - 43.0 °F 86% 30.08 in 9.0 mi NNE 8.1 mph - 0.00 in Rain Light Rain
4:53 AM 46.9 °F - 43.0 °F 86% 30.09 in 9.0 mi NNE 5.8 mph - 0.00 in Rain Light Rain
5:53 AM 46.9 °F - 44.1 °F 90% 30.08 in 7.0 mi North 6.9 mph - 0.00 in Rain Light Rain
6:53 AM 46.9 °F - 44.1 °F 90% 30.07 in 10.0 mi North 9.2 mph - 0.11 in Rain Light Rain
7:53 AM 46.9 °F - 44.1 °F 90% 30.06 in 8.0 mi North 10.4 mph - 0.04 in Rain Light Rain
8:53 AM 46.9 °F - 44.1 °F 90% 30.04 in 10.0 mi ENE 9.2 mph - 0.03 in   Mostly Cloudy
9:05 AM 46.9 °F - 44.1 °F 90% 30.05 in 10.0 mi NNE 8.1 mph - 0.00 in Rain Light Rain
9:13 AM 46.9 °F - 44.1 °F 90% 30.05 in 5.0 mi North 8.1 mph - 0.01 in Rain Rain
9:17 AM 46.9 °F - 44.1 °F 90% 30.05 in 5.0 mi North 10.4 mph - 0.02 in Rain Rain
9:53 AM 46.0 °F 42.5 °F 44.1 °F 93% 30.04 in 5.0 mi NNE 6.9 mph - 0.06 in Rain Rain
10:53 AM 46.0 °F 41.0 °F 44.1 °F 93% 30.03 in 6.0 mi North 10.4 mph - 0.09 in Rain Light Rain
11:53 AM 46.9 °F - 44.1 °F 90% 30.01 in 10.0 mi North 11.5 mph - 0.01 in Rain Light Rain
12:53 PM 48.0 °F - 45.0 °F 89% 30.00 in 10.0 mi North 9.2 mph - 0.00 in Rain Light Rain
1:53 PM 48.0 °F - 45.0 °F 89% 29.97 in 9.0 mi NNW 8.1 mph - 0.00 in   Overcast
2:53 PM 48.9 °F - 46.0 °F 90% 29.96 in 10.0 mi North 8.1 mph - 0.00 in Rain Light Rain
3:53 PM 50.0 °F - 46.0 °F 86% 29.95 in 10.0 mi NNW 6.9 mph - 0.00 in   Overcast
4:53 PM 48.9 °F - 45.0 °F 86% 29.97 in 10.0 mi NNW 10.4 mph - N/A   Overcast
5:53 PM 46.9 °F - 44.1 °F 90% 29.92 in 7.0 mi NE 8.1 mph - 0.04 in Rain Light Rain
6:53 PM 46.9 °F - 44.1 °F 90% 29.96 in 10.0 mi North 9.2 mph - 0.00 in   Overcast
7:53 PM 45.0 °F 38.5 °F 42.1 °F 90% 29.95 in 7.0 mi North 13.8 mph - 0.00 in Rain Light Rain
8:53 PM 44.1 °F 40.1 °F 42.1 °F 93% 29.94 in 3.0 mi North 6.9 mph - 0.00 in Rain Light Rain
9:08 PM 44.1 °F 38.6 °F 42.1 °F 93% 29.95 in 2.5 mi North 10.4 mph - 0.00 in   Overcast
9:25 PM 44.1 °F 39.0 °F 41.0 °F 89% 29.93 in 3.0 mi North 9.2 mph - 0.00 in Rain Light Rain
9:53 PM 44.1 °F 38.6 °F 42.1 °F 93% 29.95 in 3.0 mi NNW 10.4 mph - 0.01 in Rain Light Rain
10:03 PM 43.0 °F 40.3 °F 41.0 °F 93% 29.95 in 4.0 mi NW 4.6 mph - 0.00 in   Overcast
10:16 PM 44.1 °F 40.1 °F 41.0 °F 89% 29.94 in 3.0 mi NNW 6.9 mph - 0.00 in Rain Light Rain
10:51 PM 42.8 °F 36.6 °F 39.2 °F 87% 29.92 in 5.0 mi NNW 11.5 mph - 0.01 in   Overcast
10:53 PM 43.0 °F 37.2 °F 39.9 °F 89% 29.93 in 5.0 mi NNW 10.4 mph - 0.01 in   Overcast
11:00 PM 43.0 °F 37.7 °F 39.9 °F 89% 29.92 in 5.0 mi NNW 9.2 mph - N/A   Overcast
11:12 PM 42.1 °F 35.7 °F 39.9 °F 92% 29.91 in 6.0 mi NNW 11.5 mph - N/A   Overcast
11:29 PM 43.0 °F 37.2 °F 39.9 °F 89% 29.92 in 6.0 mi NW 10.4 mph - 0.00 in Rain Light Rain
11:47 PM 42.8 °F 35.8 °F 39.2 °F 87% 29.95 in 3.0 mi WNW 13.8 mph - 0.03 in Rain , Thunderstorm Rain
11:53 PM 42.1 °F 35.2 °F 39.9 °F 92% 29.94 in 2.5 mi WNW 12.7 mph - 0.04 in Rain , Thunderstorm Rain